Погода в Аксе

Хотите узнать прогноз погоды в Аксе? Тогда Вам сюда: Погода в Аксе

Поиск расширенной информации на нашем сайте:

Полезная информация:

Новости сайта



02.01.2020
Опубликован Долгосрочный прогноз погоды по городам России и ближнего зарубежья на январь 2020 года.
Карты: Прогноз на январь и февраль 2020 года, Сравнение прогнозируемой аномалии приземной температуры воздуха на январь 2020 года по разным моделям.




Погода в Аксе - сегодня

Время (UTC), дата Ветер
(°,м/с) 
Видим.   Явления Облачность Т
(°С)
Тd
(°С)
f(%) Тe
(°С)
Pmin
(гПа)
dP
(гПа)
Po
(мм)
O2
(г/м3)
Тmin Tmax R s Состояние
почвы
18 23.11.20 280 (З) н/о    10/0 средняя 
[Ac As]
-0.8 -6.6 65 -2  1023.1  0.1  701  284           
21 23.11.20 340 (С) н/о    10/0 средняя 
[Ac As]
-0.7 -6 67 -3  1023.7  0.6  701  284           
00 24.11.20 320 (СЗ) 20000 м    9/9 1000 м кучево-дожд. 
[Cb calv]
-1.5 -7.8 62 -2  1024.7  0.6  702  285  -4.3      сухой снег
50-90% 
03 24.11.20 320 (СЗ) 20000 м    9/8 1000 м кучево-дожд., средняя 
[Cb calv|Ac lent]
-0.1 -8.2 54 -3  1024.7  0.4  702  284           
09 24.11.20 330 (СЗ) 1{10}  20000 м    9/9 1000 м кучево-дожд. 
[Cb cap]
-3.3 -12.2 50 -3  1027.8  1.3  703  288           
12 24.11.20 310 (СЗ) н/о    8/5 1000 м средняя 
[Sc diur, vesp|Ac lent]
-4.5 -11.3 59 -7  1030  1.7  704  290    +0.5       
15 24.11.20 320 (СЗ) н/о    8/4 1000 м средняя 
[Sc diur, vesp|Ac lent]
-4.9 -12.2 57 -7  1031.8  1.5  706  291           
18 24.11.20 030 (СВ) н/о    ясно 
-9.1 -14 68 -9  1034.4  0.9  706  296           
21 24.11.20 110 (В) н/о    ясно 
-10.8 -14.5 74 -11  1036.4  1.3  707  298           
00 25.11.20 090 (В) 20000 м    3/0 верхняя 
[Ci fib]
-14.3 -17 80 -16  1039.9  709  303  -14.3      сухой снег
50-90% 
03 25.11.20 360 (С) 20000 м    ясно 
-7.7 -17 47 -11  1038.4  0.8  709  295  -14.6         
06 25.11.20 020 (С) 20000 м    ясно 
-5.9 -19.7 33 -9  1037.2  -0.5  709  293           
09 25.11.20 тихо ()   20000 м    ясно 
-9.4 -20.9 39 -9  1039.4  0.9  710  298           
12 25.11.20 200 (Ю) н/о    ясно 
-17 -21 71 -17  1043.7  1.3  711  307    -5.9       
15 25.11.20 тихо ()   н/о    ясно 
-19.4 -22.5 76 -19  1045.5  0.7  711  310           
18 25.11.20 190 (Ю) н/о    ясно 
-21 -23.5 80 -21  1045.8  -0.3  711  312           
21 25.11.20 тихо ()   н/о    ясно 
-22.4 -24.9 80 -22  1046.1  -0.3  711  314           
00 26.11.20 150 (ЮВ) 20000 м    ясно 
-22.7 -25.6 77 -23  1046.8  0.5  711  314  -22.9      сухой снег
50-90% 
03 26.11.20 230 (ЮЗ) 20000 м    ясно 
-14.4 -1.8 100 -17  1043.3  0.3  711  303           
06 26.11.20 200 (Ю) 20000 м    ясно 
-7.6 -15.6 53 -9  1038.7  -1.9  710  295           
09 26.11.20 320 (СЗ) 20000 м    3/0 верхняя 
[Ci fib]
-8.7 -17.1 51 -10  1039.6  0.5  710  297           
12 26.11.20 тихо ()   н/о    3/0 верхняя 
[Ci fib]
-16.7 -18.9 83 -17  1044  1.2  711  307    -5.8       
15 26.11.20 210 (ЮЗ) н/о    ясно 
-20.2 -22.5 82 -23  1046.2  0.7  711  311           
18 26.11.20 190 (Ю) н/о    8/0 средняя, верхняя 
[Ac lent|Ci fib]
-19.9 -22.3 81 -20  1046.1  711  311           
21 26.11.20 200 (Ю) н/о    3/0 средняя 
[Ac lent]
-18.4 -20.9 81 -19  1045.3  -0.2  711  309           
Время (UTC), дата Ветер
(°,м/с) 
Видим.   Явления Облачность Т
(°С)
Тd
(°С)
f(%) Тe
(°С)
Pmin
(гПа)
dP
(гПа)
Po
(мм)
O2
(г/м3)
Тmin Tmax R s Состояние
почвы

Для получения пояснительной информации подведите курсор к названию столбца.

ПОГОДА в Аксе - архив

Всё, что Вы хотите узнать о погоде в Аксе - удобно и подробно!

Выберите нужную дату (начиная с 1 января 2019* года) и нажмите кнопку "Найти".
Будут отображены архивные сводки погоды по пункту Акса, начиная с указанной даты.


Отображать данные в формате CSV (для использования в таблицах Excel)


Внимание! Наш архив погоды предназначен исключительно для личного некоммерческого использования в познавательных целях. Если Вам необходимы официальные справки о состоянии погоды (для производственных, юридических, коммерческих и т.п. целей), обращайтесь в органы Росгидромета.

*Примечание: данная дата относится к архиву по метеостанциям СССР (Россия, СНГ, Балтия).
Архив по метеостанциям Зарубежной Европы и Азии (кроме Китая) хранится 10 дней, по другим регионам земного шара (Китай, Африка, Америка, Австралия, Океания) - 1 день.

Акса - район местоположения метеостанции


Название, широта, долгота, высота метеостанции:
Акса 50.3°ш. 113.3°д. 732 м над ур. моря [Российская Федерация]

Дополнительная информация

В oтличие oт бoльшинства пoгoдных сайтoв мы публикуем пoдрoбную метеoинфoрмацию в детальнoм прoфессиoнальнoм фoрмате.

Характеристики температуры и влажнoсти вoздуха измеряются на высoте 2 м в тени вдали oт зданий и деревьев.
Скoрoсть ветра измеряется на высoте 10 м (на урoвне рoста челoвека скoрoсть ветра ниже в 1.5-2 раза). Если метеoстанция нахoдится в гoрoде или в лесу, тo скoрoсть ветра занижена на 2-4 м/с пo сравнению с oткрытым местoм. Скoрoсть ветра над акватoриями крупных рек и oзёр, а также на вершинах хoлмoв на 2-5 м/с выше, чем в oбычных услoвиях.
Атмoсфернoе давление в разных тoчках местнoсти мoжет значительнo oтличаться oт давления на метеoстанции, в зависимoсти oт услoвий рельефа (при пoдъёме на 10 м давление пoнижается примернo на 1 мм рт.ст.).